period_start,C,m1,H,J0,J1,J2,J3,J4,J5,JA,JB,JC,JD,JJ,JK,JN,#
2015-03-15 00:03:23,0.28,6.55,0.00,23.82,27.18,29.99,4.66,23.23,1001.69,2030.98,1625.32,1963.75,2112.22,349.91,341.56,30.76,0000 0000 0000 0000 000000
2015-03-15 00:08:24,0.27,6.56,0.00,23.83,27.18,30.02,4.68,23.15,1001.54,2030.93,1623.89,1962.68,2111.06,350.22,341.79,30.79,0000 0000 0000 0000 000000
2015-03-15 00:13:25,0.28,6.57,0.00,23.81,27.19,30.00,4.70,23.29,1001.50,2030.97,1622.63,1961.70,2110.19,350.02,341.62,30.82,0000 0000 0000 0000 000000
2015-03-15 00:18:26,0.27,6.58,0.00,23.79,27.19,29.97,4.61,23.22,1001.50,2030.98,1621.29,1960.65,2109.04,349.50,341.37,30.85,0000 0000 0000 0000 000000
2015-03-15 00:23:28,0.27,6.58,0.00,23.83,27.20,29.96,4.71,23.23,1001.49,2030.98,1619.90,1959.66,2107.94,349.86,341.24,30.88,0000 0000 0000 0000 000000
2015-03-15 00:28:29,0.27,6.59,0.00,23.79,27.20,29.97,4.63,23.22,1001.49,2030.98,1618.66,1958.67,2106.90,349.51,341.33,30.90,0000 0000 0000 0000 000000
2015-03-15 00:33:30,0.24,6.60,0.00,23.80,27.20,29.99,4.64,23.27,1001.49,2030.99,1617.44,1957.71,2105.91,349.77,341.54,30.93,0000 0000 0000 0000 000000
2015-03-15 00:38:32,0.23,6.61,0.00,23.89,27.20,30.02,4.65,23.17,1001.49,2030.98,1616.29,1956.78,2104.87,349.55,341.29,30.96,0000 0000 0000 0000 000000
2015-03-15 00:43:33,0.23,6.62,0.00,23.86,27.20,30.03,4.67,23.13,1001.52,2030.98,1615.00,1955.84,2103.87,350.13,341.57,30.99,0000 0000 0000 0000 000000
2015-03-15 00:48:35,0.27,6.62,0.00,23.81,27.20,30.00,4.72,23.20,1001.52,2030.98,1613.78,1954.92,2102.82,350.27,341.85,31.02,0000 0000 0000 0000 000000
2015-03-15 00:53:35,0.25,6.63,0.00,23.76,27.20,30.00,4.71,23.23,1001.50,2030.96,1612.56,1953.95,2101.80,349.92,341.47,31.05,0000 0000 0000 0000 000000
2015-03-15 00:58:37,0.24,6.64,0.00,23.82,27.21,29.98,4.60,23.06,1001.49,2030.96,1611.43,1953.02,2100.79,349.68,341.40,31.08,0000 0000 0000 0000 000000
2015-03-15 01:03:38,0.23,6.65,0.00,23.80,27.22,29.98,4.71,23.27,1001.49,2030.97,1610.20,1952.09,2099.77,350.27,341.83,31.11,0000 0000 0000 0000 000000
2015-03-15 01:08:39,0.24,6.65,0.00,23.82,27.22,29.97,4.75,23.27,1001.49,2030.98,1608.99,1951.16,2098.84,350.25,341.87,31.14,0000 0000 0000 0000 000000
2015-03-15 01:13:41,0.27,6.66,0.00,23.74,27.22,29.99,4.72,23.35,1001.48,2030.99,1607.80,1950.23,2097.90,350.25,341.89,31.17,0000 0000 0000 0000 000000
2015-03-15 01:18:42,0.24,6.67,0.00,23.84,27.22,30.00,4.69,23.35,1001.48,2030.97,1606.71,1949.33,2096.92,350.29,341.86,31.20,0000 0000 0000 0000 000000
2015-03-15 01:23:44,0.25,6.67,0.00,23.79,27.22,30.00,4.69,23.10,1001.48,2030.96,1605.60,1948.45,2095.99,349.80,341.44,31.23,0000 0000 0000 0000 000000
2015-03-15 01:28:45,0.22,6.68,0.00,23.82,27.22,29.98,4.67,23.32,1001.48,2030.96,1604.49,1947.65,2095.06,349.92,341.40,31.26,0000 0000 0000 0000 000000
2015-03-15 01:33:46,0.21,6.69,0.00,23.84,27.24,29.97,4.64,23.30,1001.48,2030.94,1603.37,1946.79,2094.12,349.88,341.49,31.29,0000 0000 0000 0000 000000
2015-03-15 01:38:47,0.20,6.69,0.00,23.76,27.25,29.96,4.70,23.23,1001.48,2030.95,1602.40,1945.93,2093.21,350.22,341.92,31.31,0000 0000 0000 0000 000000
2015-03-15 01:43:49,0.23,6.70,0.00,23.77,27.25,29.96,4.72,23.23,1001.48,2030.92,1601.32,1945.08,2092.34,350.30,341.99,31.34,0000 0000 0000 0000 000000
2015-03-15 01:48:50,0.23,6.71,0.00,23.79,27.25,29.98,4.68,23.24,1001.48,2030.91,1600.28,1944.24,2091.41,350.52,342.18,31.37,0000 0000 0000 0000 000000
2015-03-15 01:53:51,0.20,6.71,0.00,23.70,27.25,29.97,4.68,23.31,1001.48,2030.79,1599.14,1943.39,2090.48,349.59,341.24,31.40,0000 0000 0000 0000 000000
2015-03-15 01:58:53,0.21,6.72,0.00,23.72,27.25,29.96,4.68,23.25,1001.48,2030.67,1598.21,1942.53,2089.61,349.93,341.57,31.43,0000 0000 0000 0000 000000
2015-03-15 02:03:53,0.15,6.73,0.00,23.82,27.27,29.99,4.69,23.32,1001.48,2030.63,1597.24,1941.74,2088.71,350.00,341.56,31.46,0000 0000 0000 0000 000000
2015-03-15 02:08:55,0.19,6.73,0.00,23.76,27.27,29.97,4.69,23.35,1001.48,2030.41,1596.13,1940.94,2087.86,350.19,341.62,31.49,0000 0000 0000 0000 000000
2015-03-15 02:13:56,0.17,6.74,0.00,23.75,27.27,29.96,4.69,23.46,1001.48,2030.35,1595.14,1940.06,2086.93,349.78,341.40,31.52,0000 0000 0000 0000 000000
2015-03-15 02:18:58,0.24,6.74,0.00,23.83,27.27,29.99,4.69,23.38,1001.47,2030.36,1594.06,1939.21,2086.00,350.02,341.65,31.55,0000 0000 0000 0000 000000
2015-03-15 02:23:59,0.24,6.75,0.00,23.71,27.27,29.97,4.69,23.34,1001.47,2030.26,1593.00,1938.39,2085.11,349.40,341.22,31.58,0000 0000 0000 0000 000000
2015-03-15 02:29:00,0.21,6.76,0.00,23.67,27.28,29.97,4.73,23.32,1001.42,2030.28,1591.96,1937.61,2084.24,350.39,341.97,31.61,0000 0000 0000 0000 000000
2015-03-15 02:34:01,0.17,6.76,0.00,23.59,27.29,29.98,4.65,23.34,1001.32,2030.18,1590.90,1936.85,2083.35,349.91,341.63,31.64,0000 0000 0000 0000 000000
2015-03-15 02:39:03,0.22,6.77,0.00,23.46,27.29,30.02,4.68,23.17,1001.32,2030.06,1589.84,1936.01,2082.44,349.74,341.71,31.67,0000 0000 0000 0000 000000
2015-03-15 02:44:04,0.22,6.77,0.00,23.48,27.27,30.00,4.63,23.16,1001.23,2030.09,1588.83,1935.17,2081.66,349.82,341.82,31.70,0000 0000 0000 0000 000000
2015-03-15 02:49:05,0.21,6.78,0.00,23.50,27.27,29.89,4.72,23.21,1001.17,2030.19,1587.94,1934.47,2080.93,350.36,342.07,31.72,0000 0000 0000 0000 000000
2015-03-15 02:54:07,0.18,6.79,0.00,23.68,27.26,29.92,4.67,23.24,1001.08,2030.28,1587.07,1933.91,2080.09,350.27,341.91,31.75,0000 0000 0000 0000 000000
2015-03-15 02:59:08,0.31,6.80,0.00,23.98,27.25,29.97,4.71,23.37,1001.02,2030.67,1586.22,1933.09,2079.33,350.73,341.63,31.78,0000 0000 0000 0000 000000
2015-03-15 03:04:09,0.17,6.80,0.00,24.08,27.25,29.99,4.60,23.32,1001.01,2030.58,1585.26,1932.37,2078.53,349.49,340.57,31.81,0000 0000 0000 0000 000000
2015-03-15 03:09:10,0.26,6.81,0.00,24.08,27.25,30.01,4.74,23.21,1001.02,2030.61,1584.14,1931.63,2077.73,349.96,341.07,31.84,0000 0000 0000 0000 000000
2015-03-15 03:14:12,0.14,6.81,0.00,23.88,27.25,30.02,4.65,23.19,1001.03,2030.56,1583.16,1930.84,2076.86,350.12,341.42,31.87,0000 0000 0000 0000 000000
2015-03-15 03:19:13,0.19,6.82,0.00,23.68,27.25,30.07,4.67,23.25,1001.06,2030.39,1582.12,1930.05,2076.02,349.93,341.42,31.90,0000 0000 0000 0000 000000
2015-03-15 03:24:15,0.32,6.83,0.00,23.57,27.25,30.04,4.73,23.27,1001.03,2030.58,1581.10,1929.25,2075.20,350.59,342.27,31.93,0000 0000 0000 0000 000000
2015-03-15 03:29:16,0.15,6.83,0.00,23.61,27.25,30.00,4.70,23.24,1001.02,2030.54,1580.13,1928.57,2074.44,349.69,341.33,31.96,0000 0000 0000 0000 000000
2015-03-15 03:34:17,0.21,6.84,0.00,23.58,27.24,29.96,4.69,23.38,1001.01,2030.51,1579.14,1927.91,2073.64,350.40,341.94,31.99,0000 0000 0000 0000 000000
2015-03-15 03:39:18,0.23,6.85,0.00,23.56,27.22,29.99,4.78,23.30,1001.02,2030.73,1578.23,1927.09,2072.93,349.56,341.31,32.02,0000 0000 0000 0000 000000
2015-03-15 03:44:19,0.27,6.85,0.00,23.74,27.22,29.99,4.66,23.30,1001.01,2030.90,1577.30,1926.43,2072.12,349.30,340.82,32.05,0000 0000 0000 0000 000000
2015-03-15 03:49:21,0.18,6.86,0.00,24.11,27.22,30.01,4.71,23.32,1001.03,2030.88,1576.42,1925.80,2071.31,350.62,341.70,32.08,0000 0000 0000 0000 000000
2015-03-15 03:54:22,0.20,6.86,0.00,24.01,27.22,29.98,4.61,23.11,1001.04,2030.95,1575.55,1925.03,2070.60,349.95,341.29,32.11,0000 0000 0000 0000 000000
2015-03-15 03:59:23,0.21,6.87,0.00,23.80,27.22,30.00,4.64,23.27,1001.03,2030.92,1574.51,1924.19,2069.85,350.15,341.63,32.14,0000 0000 0000 0000 000000
2015-03-15 04:04:25,0.17,6.88,0.00,23.83,27.22,30.02,4.75,23.39,1001.09,2030.78,1573.44,1923.41,2068.97,350.64,342.01,32.16,0000 0000 0000 0000 000000
2015-03-15 04:09:26,0.23,6.88,0.00,23.78,27.22,30.00,4.76,23.42,1001.22,2030.90,1572.49,1922.85,2068.11,349.94,341.62,32.19,0000 0000 0000 0000 000000
2015-03-15 04:14:27,0.19,6.89,0.00,23.64,27.22,30.01,4.69,23.24,1001.20,2030.86,1571.55,1922.04,2067.35,350.07,342.04,32.22,0000 0000 0000 0000 000000
2015-03-15 04:19:29,0.23,6.89,0.00,23.62,27.22,29.99,4.67,23.45,1001.15,2030.84,1570.63,1921.25,2066.66,350.17,341.68,32.25,0000 0000 0000 0000 000000
2015-03-15 04:24:30,0.17,6.90,0.00,23.61,27.22,29.94,4.75,23.38,1001.10,2030.78,1569.70,1920.63,2065.90,350.53,342.31,32.28,0000 0000 0000 0000 000000
2015-03-15 04:29:31,0.18,6.91,0.00,23.61,27.22,29.96,4.65,23.25,1001.12,2030.95,1568.82,1920.01,2065.07,349.35,341.18,32.31,0000 0000 0000 0000 000000
2015-03-15 04:34:33,0.22,6.91,0.00,23.61,27.22,30.00,4.72,23.13,1001.16,2030.97,1567.90,1919.33,2064.39,349.65,341.23,32.34,0000 0000 0000 0000 000000
2015-03-15 04:39:34,0.15,6.92,0.00,23.59,27.20,29.99,4.67,23.27,1001.21,2030.97,1567.00,1918.79,2063.73,349.59,341.25,32.37,0000 0000 0000 0000 000000
2015-03-15 04:44:36,0.18,6.92,0.00,23.55,27.20,29.97,4.76,23.34,1001.32,2030.99,1566.12,1918.04,2063.02,350.38,342.16,32.40,0000 0000 0000 0000 000000
2015-03-15 04:49:37,0.22,6.93,0.00,23.67,27.19,29.94,4.68,23.25,1001.35,2030.99,1565.30,1917.48,2062.30,350.27,341.94,32.43,0000 0000 0000 0000 000000
2015-03-15 04:54:38,0.11,6.93,0.00,24.03,27.18,29.95,4.71,23.18,1001.47,2030.99,1564.67,1916.92,2061.74,350.50,341.69,32.46,0000 0000 0000 0000 000000
2015-03-15 04:59:39,0.20,6.94,0.00,24.03,27.18,29.96,4.68,23.48,1001.48,2030.99,1563.77,1916.08,2060.95,349.84,341.30,32.49,0000 0000 0000 0000 000000
2015-03-15 05:04:40,0.25,6.94,0.00,23.95,27.19,29.99,4.68,23.24,1001.48,2030.98,1562.72,1915.41,2060.08,350.10,341.62,32.52,0000 0000 0000 0000 000000
2015-03-15 05:09:41,0.13,6.95,0.00,23.98,27.20,29.99,4.61,23.30,1001.48,2030.98,1561.89,1914.79,2059.27,348.86,340.16,32.54,0000 0000 0000 0000 000000
2015-03-15 05:14:43,0.19,6.96,0.00,23.79,27.20,30.04,4.68,23.39,1001.48,2030.99,1560.96,1914.03,2058.69,349.89,341.62,32.57,0000 0000 0000 0000 000000
2015-03-15 05:19:44,0.21,6.96,0.00,23.64,27.20,30.07,4.68,23.25,1001.48,2030.98,1560.02,1913.25,2057.95,349.62,341.40,32.60,0000 0000 0000 0000 000000
2015-03-15 05:24:45,0.20,6.97,0.00,23.64,27.20,30.02,4.71,23.37,1001.49,2030.99,1559.12,1912.72,2057.13,350.13,341.81,32.63,0000 0000 0000 0000 000000
2015-03-15 05:29:46,0.19,6.97,0.00,23.61,27.20,29.97,4.71,23.25,1001.49,2030.99,1558.19,1912.03,2056.45,350.26,342.18,32.66,0000 0000 0000 0000 000000
2015-03-15 05:34:47,0.19,6.98,0.00,23.63,27.20,30.01,4.70,23.38,1001.49,2030.99,1557.41,1911.37,2055.87,349.90,341.50,32.69,0000 0000 0000 0000 000000
2015-03-15 05:39:49,0.17,6.98,0.00,23.59,27.18,30.01,4.70,23.25,1001.51,2030.99,1556.55,1910.80,2055.05,350.00,341.52,32.72,0000 0000 0000 0000 000000
2015-03-15 05:44:50,0.16,6.99,0.00,23.61,27.17,29.97,4.66,23.23,1001.50,2030.99,1555.82,1910.06,2054.35,350.11,341.92,32.75,0000 0000 0000 0000 000000
2015-03-15 05:49:51,0.17,6.99,0.00,23.83,27.17,29.96,4.61,23.13,1001.52,2030.99,1555.03,1909.49,2053.80,350.12,341.70,32.78,0000 0000 0000 0000 000000
2015-03-15 05:54:52,0.15,7.00,0.00,24.18,27.17,29.95,4.64,23.34,1001.56,2030.99,1554.26,1908.96,2053.02,349.24,340.55,32.81,0000 0000 0000 0000 000000
2015-03-15 05:59:54,0.23,7.00,0.00,24.07,27.17,30.00,4.65,23.18,1001.77,2030.99,1553.45,1908.13,2052.31,349.83,341.24,32.84,0000 0000 0000 0000 000000
2015-03-15 06:04:56,0.22,7.01,0.00,23.97,27.17,30.00,4.67,23.32,1001.96,2030.99,1552.55,1907.54,2051.58,349.98,341.67,32.87,0000 0000 0000 0000 000000
2015-03-15 06:09:57,0.13,7.02,0.00,23.90,27.18,30.03,4.65,23.10,1001.97,2030.99,1551.65,1906.92,2050.89,350.27,341.90,32.90,0000 0000 0000 0000 000000
2015-03-15 06:14:58,0.19,7.02,0.00,23.74,27.20,30.06,4.69,23.41,1001.97,2030.98,1550.81,1906.11,2050.08,349.80,341.70,32.93,0000 0000 0000 0000 000000
2015-03-15 06:20:00,0.23,7.03,0.00,23.69,27.20,30.05,4.71,23.36,1001.97,2030.97,1549.86,1905.34,2049.21,350.28,342.15,32.95,0000 0000 0000 0000 000000
2015-03-15 06:25:01,0.14,7.03,0.00,23.70,27.20,30.00,4.62,23.20,1001.97,2030.96,1549.03,1904.85,2048.57,349.97,341.77,32.98,0000 0000 0000 0000 000000
2015-03-15 06:30:02,0.19,7.04,0.00,23.66,27.19,30.02,4.71,23.29,1002.00,2030.98,1548.38,1904.07,2047.84,350.62,342.81,33.01,0000 0000 0000 0000 000000
2015-03-15 06:35:04,0.22,7.04,0.00,23.63,27.18,30.02,4.65,23.30,1002.20,2030.99,1547.32,1903.50,2047.05,349.97,341.86,33.04,0000 0000 0000 0000 000000
2015-03-15 06:40:05,0.15,7.05,0.00,23.65,27.17,29.98,4.78,23.35,1002.44,2030.98,1546.50,1902.83,2046.72,350.77,342.75,33.07,0000 0000 0000 0000 000000
2015-03-15 06:45:07,0.16,7.06,0.00,23.61,27.17,29.96,4.70,23.27,1002.46,2030.98,1545.73,1902.06,2046.01,349.92,342.21,33.10,0000 0000 0000 0000 000000
2015-03-15 06:50:08,0.17,7.06,0.00,23.59,27.17,29.98,4.73,23.37,1002.47,2030.98,1544.97,1901.61,2045.29,349.82,342.21,33.13,0000 0000 0000 0000 000000
2015-03-15 06:55:09,0.15,7.07,0.00,23.62,27.15,29.98,4.67,23.23,1002.50,2030.99,1544.14,1901.00,2044.74,349.71,342.00,33.16,0000 0000 0000 0000 000000
2015-03-15 07:00:10,0.20,7.07,0.00,23.60,27.15,29.97,4.69,23.28,1002.80,2030.99,1543.56,1900.33,2044.02,350.21,342.45,33.19,0000 0000 0000 0000 000000
2015-03-15 07:05:12,0.24,7.08,0.00,23.69,27.15,29.99,4.63,23.44,1002.94,2030.99,1542.47,1899.59,2043.17,349.75,341.96,33.22,0000 0000 0000 0000 000000
2015-03-15 07:10:13,0.16,7.08,0.00,23.99,27.15,29.98,4.71,23.38,1002.94,2030.98,1541.68,1898.91,2042.30,350.40,342.20,33.25,0000 0000 0000 0000 000000
2015-03-15 07:15:14,0.22,7.09,0.00,24.11,27.15,29.97,4.72,23.27,1002.96,2030.99,1540.77,1898.07,2041.55,350.20,341.93,33.28,0000 0000 0000 0000 000000
2015-03-15 07:20:15,0.25,7.10,0.00,24.10,27.15,29.95,4.68,23.29,1003.13,2030.99,1539.73,1897.27,2040.68,349.91,341.80,33.31,0000 0000 0000 0000 000000
2015-03-15 07:25:17,0.24,7.10,0.00,23.92,27.15,30.01,4.75,23.33,1003.38,2030.98,1538.66,1896.50,2039.84,350.23,342.48,33.34,0000 0000 0000 0000 000000
2015-03-15 07:30:18,0.24,7.11,0.00,23.74,27.17,30.08,4.73,23.31,1003.43,2030.98,1537.55,1895.65,2038.89,349.99,342.21,33.36,0000 0000 0000 0000 000000
2015-03-15 07:35:19,0.17,7.12,0.00,23.69,27.17,30.07,4.73,23.31,1003.43,2030.97,1536.65,1894.93,2038.03,350.36,342.80,33.39,0000 0000 0000 0000 000000
2015-03-15 07:40:20,0.21,7.12,0.00,23.67,27.16,30.05,4.65,23.40,1003.43,2030.94,1535.74,1894.08,2037.16,350.17,342.46,33.42,0000 0000 0000 0000 000000
2015-03-15 07:45:21,0.20,7.13,0.00,23.65,27.15,30.08,4.68,23.38,1003.43,2030.92,1534.91,1893.34,2036.38,350.12,342.47,33.45,0000 0000 0000 0000 000000
2015-03-15 07:50:22,0.21,7.13,0.00,23.63,27.15,30.07,4.72,23.47,1003.43,2030.90,1533.94,1892.65,2035.59,350.67,342.99,33.48,0000 0000 0000 0000 000000
2015-03-15 07:55:24,0.21,7.14,0.00,23.59,27.15,30.05,4.70,23.38,1003.44,2030.95,1532.94,1891.84,2034.67,350.53,342.89,33.51,0000 0000 0000 0000 000000
2015-03-15 08:00:25,0.19,7.15,0.00,23.61,27.14,30.03,4.72,23.38,1003.45,2030.91,1531.96,1891.00,2033.80,350.55,343.05,33.54,0000 0000 0000 0000 000000
2015-03-15 08:05:26,0.26,7.15,0.00,23.63,27.13,30.01,4.70,23.54,1003.46,2030.85,1530.84,1890.17,2032.86,350.08,342.59,33.57,0000 0000 0000 0000 000000
2015-03-15 08:10:27,0.25,7.16,0.00,23.61,27.12,30.01,4.67,23.35,1003.46,2030.84,1529.82,1889.30,2032.00,349.20,341.70,33.60,0000 0000 0000 0000 000000
2015-03-15 08:15:29,0.22,7.17,0.00,23.57,27.12,30.02,4.64,23.52,1003.69,2030.81,1528.78,1888.59,2031.13,349.70,342.30,33.63,0000 0000 0000 0000 000000
2015-03-15 08:20:30,0.20,7.18,0.00,23.77,27.12,29.99,4.76,23.45,1003.82,2030.92,1527.86,1887.82,2030.19,350.31,342.83,33.66,0000 0000 0000 0000 000000
2015-03-15 08:25:32,0.23,7.18,0.00,24.07,27.12,29.98,4.68,23.16,1003.89,2030.92,1526.85,1886.97,2029.39,349.56,341.73,33.69,0000 0000 0000 0000 000000
2015-03-15 08:30:33,0.27,7.19,0.00,23.86,27.12,29.95,4.76,23.38,1003.92,2030.91,1525.74,1886.08,2028.49,349.87,342.40,33.72,0000 0000 0000 0000 000000
2015-03-15 08:35:35,0.22,7.20,0.00,23.87,27.12,29.98,4.70,23.27,1003.93,2030.89,1524.73,1885.29,2027.68,350.21,342.40,33.75,0000 0000 0000 0000 000000
2015-03-15 08:40:36,0.22,7.20,0.00,23.89,27.12,29.96,4.65,23.33,1003.95,2030.78,1523.73,1884.50,2026.77,349.89,342.16,33.78,0000 0000 0000 0000 000000
2015-03-15 08:45:37,0.17,7.21,0.00,23.71,27.13,30.04,4.74,23.43,1003.97,2030.59,1522.70,1883.68,2025.90,350.37,342.83,33.80,0000 0000 0000 0000 000000
2015-03-15 08:50:38,0.19,7.21,0.00,23.58,27.14,30.06,4.76,23.37,1004.02,2030.49,1521.70,1882.86,2024.99,349.99,342.70,33.83,0000 0000 0000 0000 000000
2015-03-15 08:55:40,0.22,7.22,0.00,23.59,27.14,30.03,4.64,23.25,1004.21,2030.34,1520.67,1882.05,2024.08,349.73,342.40,33.86,0000 0000 0000 0000 000000
2015-03-15 09:00:41,0.19,7.23,0.00,23.54,27.13,29.99,4.71,23.40,1004.23,2030.36,1519.82,1881.30,2023.30,349.81,342.62,33.89,0000 0000 0000 0000 000000
2015-03-15 09:05:42,0.28,7.23,0.00,23.55,27.12,30.02,4.74,23.50,1004.14,2030.55,1518.76,1880.67,2022.59,350.05,342.81,33.92,0000 0000 0000 0000 000000
2015-03-15 09:10:43,0.16,7.24,0.00,23.52,27.12,30.01,4.73,23.32,1004.28,2030.71,1517.96,1880.01,2021.93,349.88,342.71,33.95,0000 0000 0000 0000 000000
2015-03-15 09:15:45,0.26,7.25,0.00,23.48,27.12,30.02,4.78,23.41,1004.41,2030.82,1517.06,1879.22,2021.09,350.71,343.67,33.98,0000 0000 0000 0000 000000
2015-03-15 09:20:46,0.17,7.25,0.00,23.50,27.10,30.03,4.67,23.41,1004.44,2030.81,1516.16,1878.72,2020.41,350.33,343.26,34.01,0000 0000 0000 0000 000000
2015-03-15 09:25:47,0.16,7.26,0.00,23.74,27.10,30.00,4.70,23.38,1004.49,2030.62,1515.31,1878.00,2019.71,349.30,342.01,34.04,0000 0000 0000 0000 000000
2015-03-15 09:30:48,0.23,7.26,0.00,23.99,27.10,30.00,4.64,23.33,1004.49,2030.75,1514.55,1877.24,2018.98,349.89,342.27,34.07,0000 0000 0000 0000 000000
2015-03-15 09:35:50,0.18,7.27,0.00,23.75,27.10,29.95,4.74,23.45,1004.52,2030.72,1513.62,1876.67,2018.16,350.32,342.85,34.10,0000 0000 0000 0000 000000
2015-03-15 09:40:51,0.14,7.27,0.00,23.74,27.10,29.97,4.72,23.54,1004.53,2030.57,1512.69,1875.99,2017.46,350.02,342.62,34.13,0000 0000 0000 0000 000000
2015-03-15 09:45:52,0.20,7.28,0.00,23.72,27.10,29.97,4.70,23.63,1004.61,2030.47,1511.80,1875.21,2016.73,350.32,342.97,34.16,0000 0000 0000 0000 000000
2015-03-15 09:50:54,0.18,7.29,0.00,23.57,27.11,29.98,4.66,23.57,1004.85,2030.49,1510.86,1874.63,2016.02,350.24,343.34,34.19,0000 0000 0000 0000 000000
2015-03-15 09:55:55,0.14,7.29,0.00,23.59,27.12,29.96,4.71,23.49,1004.90,2030.23,1510.00,1873.98,2015.22,349.84,342.77,34.21,0000 0000 0000 0000 000000
2015-03-15 10:00:56,0.20,7.30,0.00,23.56,27.12,29.94,4.70,23.43,1004.97,2030.10,1509.12,1873.16,2014.47,350.06,342.92,34.24,0000 0000 0000 0000 000000
2015-03-15 10:05:58,0.20,7.30,0.00,23.45,27.12,29.92,4.75,23.57,1005.25,2030.04,1508.24,1872.58,2013.68,350.20,343.61,34.27,0000 0000 0000 0000 000000
2015-03-15 10:10:59,0.16,7.31,0.00,23.42,27.12,29.84,4.69,23.27,1005.38,2030.06,1507.38,1872.00,2013.00,350.32,343.77,34.30,0000 0000 0000 0000 000000
2015-03-15 10:16:00,0.23,7.31,0.00,23.52,27.13,29.87,4.72,23.49,1005.32,2030.03,1506.53,1871.20,2012.18,350.16,343.51,34.33,0000 0000 0000 0000 000000
2015-03-15 10:21:02,0.15,7.32,0.00,23.42,27.14,29.90,4.72,23.44,1005.33,2030.01,1505.77,1870.68,2011.57,350.49,343.87,34.36,0000 0000 0000 0000 000000
2015-03-15 10:26:03,0.16,7.32,0.00,23.29,27.14,29.96,4.66,23.69,1005.36,2030.04,1504.85,1870.00,2010.88,349.84,343.43,34.39,0000 0000 0000 0000 000000
2015-03-15 10:31:04,0.21,7.33,0.00,23.30,27.13,29.90,4.72,23.45,1005.38,2030.02,1504.02,1869.32,2010.06,350.18,343.55,34.42,0000 0000 0000 0000 000000
2015-03-15 10:36:06,0.19,7.34,0.00,23.52,27.12,29.81,4.72,23.43,1005.41,2030.01,1503.14,1868.78,2009.32,350.25,343.50,34.45,0000 0000 0000 0000 000000
2015-03-15 10:41:07,0.20,7.34,0.00,23.88,27.12,29.86,4.71,23.43,1005.65,2030.02,1502.26,1868.03,2008.77,350.39,343.30,34.48,0000 0000 0000 0000 000000
2015-03-15 10:46:08,0.21,7.34,0.00,23.78,27.12,29.89,4.72,23.37,1005.81,2030.04,1501.45,1867.42,2008.01,350.45,343.48,34.51,0000 0000 0000 0000 000000
2015-03-15 10:51:10,0.18,7.35,0.00,23.72,27.12,29.92,4.69,23.44,1005.86,2030.02,1500.51,1866.83,2007.21,349.69,342.78,34.54,0000 0000 0000 0000 000000
2015-03-15 10:56:11,0.21,7.36,0.00,23.74,27.11,29.92,4.74,23.40,1005.87,2030.03,1499.64,1866.07,2006.51,350.34,343.51,34.57,0000 0000 0000 0000 000000
2015-03-15 11:01:12,0.20,7.36,0.00,23.70,27.11,29.96,4.73,23.28,1005.87,2030.02,1498.75,1865.33,2005.82,350.34,343.23,34.60,0000 0000 0000 0000 000000
2015-03-15 11:06:13,0.19,7.37,0.00,23.67,27.11,29.94,4.74,23.62,1005.87,2030.02,1497.75,1864.78,2005.03,350.00,343.12,34.62,0000 0000 0000 0000 000000
2015-03-15 11:11:15,0.19,7.38,0.00,23.58,27.12,29.95,4.66,23.53,1005.86,2030.02,1496.90,1864.04,2004.22,349.79,343.12,34.65,0000 0000 0000 0000 000000
2015-03-15 11:16:16,0.23,7.38,0.00,23.51,27.12,29.88,4.68,23.62,1005.84,2030.01,1496.00,1863.35,2003.52,350.18,343.39,34.68,0000 0000 0000 0000 000000
2015-03-15 11:21:18,0.14,7.39,0.00,23.56,27.12,29.95,4.74,23.54,1005.86,2030.00,1495.10,1862.85,2002.90,349.96,343.57,34.71,0000 0000 0000 0000 000000
2015-03-15 11:26:19,0.23,7.40,0.00,23.57,27.12,29.92,4.79,23.32,1005.88,2030.01,1494.18,1862.06,2002.08,350.18,343.43,34.74,0000 0000 0000 0000 000000
2015-03-15 11:31:20,0.24,7.40,0.00,23.56,27.12,29.93,4.67,23.38,1006.00,2030.01,1493.30,1861.46,2001.33,349.94,343.35,34.77,0000 0000 0000 0000 000000
2015-03-15 11:36:21,0.16,7.41,0.00,23.48,27.12,29.91,4.75,23.35,1006.20,2030.01,1492.41,1860.90,2000.71,350.26,343.93,34.80,0000 0000 0000 0000 000000
2015-03-15 11:41:23,0.21,7.41,0.00,23.47,27.12,29.90,4.73,23.32,1006.35,2030.01,1491.52,1860.08,1999.95,350.29,344.01,34.83,0000 0000 0000 0000 000000
2015-03-15 11:46:24,0.24,7.42,0.00,23.60,27.12,29.90,4.71,23.18,1006.36,2030.00,1490.59,1859.36,1999.12,349.76,343.29,34.86,0000 0000 0000 0000 000000
2015-03-15 11:51:26,0.17,7.42,0.00,23.63,27.12,29.92,4.73,23.25,1006.36,2030.00,1489.73,1858.85,1998.38,350.20,343.53,34.89,0000 0000 0000 0000 000000
2015-03-15 11:56:27,0.19,7.43,0.00,23.60,27.12,29.94,4.72,23.28,1006.37,2030.00,1488.84,1858.05,1997.72,349.95,343.06,34.92,0000 0000 0000 0000 000000
2015-03-15 12:01:28,0.27,1.98,0.00,23.63,27.14,29.93,4.18,23.14,1006.37,2033.59,2954.12,2936.55,3178.22,309.93,304.10,0.00,0000 0000 0000 0000 000000
2015-03-15 12:06:29,0.26,0.00,0.00,23.67,27.13,29.94,4.75,26.87,1006.37,2034.74,3483.12,3327.06,3605.68,349.97,343.46,0.03,0000 0000 0000 0000 000000
2015-03-15 12:11:30,0.26,0.00,0.00,23.74,27.13,29.94,4.71,26.89,1006.37,2034.75,3480.32,3325.46,3603.46,350.01,343.33,0.05,0000 0000 0000 0000 000000
2015-03-15 12:16:32,0.24,0.01,0.00,23.79,27.14,29.94,4.67,26.77,1006.39,2034.71,3477.71,3323.79,3601.46,350.05,343.29,0.08,0000 0000 0000 0000 000000
2015-03-15 12:21:33,0.22,0.01,0.00,23.67,27.14,29.92,4.75,26.88,1006.48,2034.57,3475.17,3322.09,3599.47,350.32,343.80,0.11,0000 0000 0000 0000 000000
2015-03-15 12:26:35,0.21,0.02,0.00,23.75,27.14,29.92,4.74,26.76,1006.73,2034.72,3472.81,3320.47,3597.53,349.77,343.24,0.14,0000 0000 0000 0000 000000
2015-03-15 12:31:36,0.15,0.02,0.00,23.75,27.15,29.95,4.76,26.77,1006.81,2034.52,3470.35,3318.82,3595.67,350.36,343.69,0.17,0000 0000 0000 0000 000000
2015-03-15 12:36:37,0.18,0.03,0.00,23.72,27.15,29.95,4.64,26.83,1006.84,2034.58,3468.00,3317.27,3593.81,349.44,342.93,0.20,0000 0000 0000 0000 000000
2015-03-15 12:41:38,0.20,0.03,0.00,23.77,27.15,29.95,4.73,26.74,1006.84,2034.64,3465.62,3315.63,3591.96,349.81,343.29,0.23,0000 0000 0000 0000 000000
2015-03-15 12:46:40,0.17,0.04,0.00,23.73,27.15,29.95,4.71,26.82,1006.84,2034.74,3463.30,3314.00,3590.16,350.05,343.83,0.26,0000 0000 0000 0000 000000
2015-03-15 12:51:41,0.13,0.04,0.00,23.77,27.15,29.94,4.72,26.86,1006.82,2034.56,3460.89,3312.42,3588.27,350.02,343.61,0.29,0000 0000 0000 0000 000000
2015-03-15 12:56:43,0.17,0.05,0.00,23.80,27.15,29.89,4.70,26.75,1006.85,2034.51,3458.51,3310.78,3586.44,350.01,343.43,0.32,0000 0000 0000 0000 000000
2015-03-15 13:01:44,0.20,0.05,0.00,23.76,27.15,29.92,4.73,26.95,1006.85,2034.69,3456.28,3309.28,3584.73,349.09,342.57,0.35,0000 0000 0000 0000 000000